Location: Amherst
(42.5000°N, 72.5000°W)
Time: 16:01:00
(UTC-04:00)

ISS - Pass Details

Date: 18 July 2018
Orbit: 402 x 408 km, 51.6° (Epoch: 17 July)

Event Time Altitude Azimuth Distance (km) Brightness Sun altitude
Rises 04:10:56 0° 306° (NW) 2,332 -0.1 -12.3°
Reaches altitude 10° 04:13:05 10° 313° (NW) 1,470 -1.0 -12.0°
Maximum altitude 04:16:16 44° 27° (NNE) 575 -2.5 -11.6°
Drops below altitude 10° 04:19:26 10° 102° (ESE) 1,465 -0.5 -11.1°
Sets 04:21:34 0° 109° (ESE) 2,323 0.4 -10.8°
